GW7009 Weather Reports


time (UTC)temp
C
wind
direction
speed
KPH
gust
KPH
rain 1hr
cm
rain 24hr
cm
rain mn
cm
humidity
%
barometer
mb
20260504201522 22 214 4.8 14.5 0.00 0.00 0.00 39 1009.1
20260504200024 22 216 11.3 20.9 0.00 0.00 0.00 36 1009.3
20260504194510 22 263 6.4 24.1 0.00 0.00 0.00 40 1009.4
20260504193015 21 263 14.5 27.4 0.00 0.00 0.00 36 1009.9
20260504191525 21 242 16.1 25.7 0.00 0.00 0.00 35 1010.0
20260504190026 21 277 11.3 20.9 0.00 0.00 0.00 36 1010.1
20260504184536 20 216 4.8 24.1 0.00 0.00 0.00 36 1010.2
20260504183012 21 288 4.8 20.9 0.00 0.00 0.00 38 1010.3
20260504181517 21 351 9.7 22.5 0.00 0.00 0.00 39 1010.6
20260504180025 20 257 9.7 25.7 0.00 0.00 0.00 37 1010.8
20260504174526 20 269 14.5 22.5 0.00 0.00 0.00 37 1011.0
20260504173013 20 228 11.3 20.9 0.00 0.00 0.00 38 1011.2
20260504171522 20 212 8.0 22.5 0.00 0.00 0.00 37 1011.5
20260504081524 7 319 0.0 3.2 0.00 0.00 0.00 55 1014.2
20260504044521 10 231 3.2 11.3 0.00 0.00 0.00 45 1014.2
20260504043008 11 226 1.6 9.7 0.00 0.00 0.00 43 1014.2
20260504041513 10 207 3.2 9.7 0.00 0.00 0.00 46 1014.2
20260504040017 10 243 3.2 11.3 0.00 0.00 0.00 44 1014.0
20260504034522 10 219 3.2 8.0 0.00 0.00 0.00 45 1013.8
20260504033027 10 226 3.2 8.0 0.00 0.00 0.00 45 1013.7
20260504031511 11 210 3.2 11.3 0.00 0.00 0.00 44 1013.6
20260504030013 11 233 4.8 8.0 0.00 0.00 0.00 44 1013.4
20260504024520 10 211 3.2 4.8 0.00 0.00 0.00 45 1013.5
20260504023025 11 201 3.2 8.0 0.00 0.00 0.00 42 1013.6
20260504021506 10 229 3.2 6.4 0.00 0.00 0.00 44 1013.7
20260504020016 11 210 3.2 8.0 0.00 0.00 0.00 44 1013.7
20260504014524 11 209 1.6 4.8 0.00 0.00 0.00 44 1013.6
20260504013023 10 211 1.6 4.8 0.00 0.00 0.00 43 1013.6
20260504011524 11 225 1.6 4.8 0.00 0.00 0.00 45 1013.4
20260504010009 11 219 1.6 4.8 0.00 0.00 0.00 45 1013.5
20260504004519 11 216 1.6 3.2 0.00 0.00 0.00 41 1013.4
20260504003018 12 214 1.6 6.4 0.00 0.00 0.00 40 1013.3
20260504001525 12 240 1.6 3.2 0.00 0.00 0.00 41 1013.1
20260504000025 12 271 1.6 9.7 0.00 0.00 0.00 39 1013.0
20260503234512 13 297 3.2 8.0 0.00 0.00 0.00 40 1012.8
20260503233026 13 280 4.8 11.3 0.00 0.00 0.00 40 1012.7
20260503231522 14 286 4.8 19.3 0.00 0.00 0.00 37 1012.7
20260503230028 14 282 8.0 20.9 0.00 0.00 0.00 35 1012.5
20260503224530 14 300 4.8 19.3 0.00 0.00 0.00 37 1012.6
20260503223013 15 269 9.7 22.5 0.00 0.00 0.00 36 1012.5
20260503221526 15 303 11.3 24.1 0.00 0.00 0.00 34 1012.5
20260503220024 15 313 9.7 20.9 0.00 0.00 0.00 35 1012.7
20260503214526 15 294 9.7 16.1 0.00 0.00 0.00 33 1012.5
20260503213013 15 301 8.0 14.5 0.00 0.00 0.00 35 1012.4
20260503211519 15 277 6.4 22.5 0.00 0.00 0.00 39 1012.4
20260503210025 15 359 4.8 19.3 0.00 0.00 0.00 42 1012.3
20260503204526 15 324 9.7 25.7 0.00 0.00 0.00 38 1012.3
20260503203028 15 298 11.3 20.9 0.00 0.00 0.00 35 1012.4